Location: Narvik
(68.4360°N, 17.4370°E)
Time: 04:45:22
(UTC+01:00)

FO-29 - Visible Passes

Search period start: 22 November 2019 00:00
Search period end: 02 December 2019 00:00
Orbit: 800 x 1321 km, 98.6° (Epoch: 20 November)

Date Brightness Start Highest point End Pass type
(mag) Time Alt. Az. Time Alt. Az. Time Alt. Az.
22 Nov 11.2 01:48:04 28° NNW 01:48:04 28° NNW 01:50:58 10° NNW visible
22 Nov 11.6 03:34:33 17° NW 03:34:33 17° NW 03:36:16 10° NNW visible
22 Nov 9.7 16:01:19 10° NNE 16:08:09 79° WNW 16:14:08 10° SW visible
22 Nov 10.7 17:46:29 11° NNE 17:52:42 41° NW 17:58:21 10° WSW visible
22 Nov 11.2 19:32:59 19° NNE 19:36:30 29° N 19:41:50 10° WNW visible
22 Nov 11.1 21:19:29 31° NNE 21:20:09 31° NNE 21:25:45 10° NW visible
22 Nov 10.9 23:05:58 39° N 23:05:58 39° N 23:10:29 10° NNW visible
23 Nov 11.1 00:52:27 32° NNW 00:52:27 32° NNW 00:55:44 10° NNW visible
23 Nov 11.4 02:38:57 21° NNW 02:38:57 21° NNW 02:41:07 10° NNW visible
23 Nov 11.7 04:25:27 12° NNW 04:25:27 12° NNW 04:26:07 10° NNW visible
23 Nov 9.7 15:06:14 10° NNE 15:12:57 68° ESE 15:18:49 10° S visible
23 Nov 10.2 16:51:26 10° NNE 16:58:03 55° NW 17:03:52 10° WSW visible
23 Nov 11.0 18:37:22 15° NNE 18:42:11 33° NNW 18:47:36 10° W visible
23 Nov 11.2 20:23:52 25° NNE 20:25:51 29° N 20:31:10 10° NW visible
23 Nov 11.0 22:10:22 35° NNE 22:10:22 35° NNE 22:15:29 10° NW visible
23 Nov 11.0 23:56:51 36° NNW 23:56:51 36° NNW 00:00:32 10° NNW visible
24 Nov 11.3 01:43:20 25° NNW 01:43:20 25° NNW 01:45:54 10° NNW visible
24 Nov 11.6 03:29:50 15° NNW 03:29:50 15° NNW 03:31:11 10° NNW visible
24 Nov 9.7 15:56:25 10° NNE 16:03:09 81° WNW 16:09:00 10° SSW visible
24 Nov 10.6 17:41:45 11° NNE 17:47:43 41° NW 17:53:17 10° WSW visible
24 Nov 11.1 19:28:15 20° NNE 19:31:34 29° N 19:36:47 10° WNW visible
24 Nov 11.1 21:14:44 30° NNE 21:15:13 30° NNE 21:20:40 10° NW visible
24 Nov 11.0 23:01:14 36° N 23:01:14 36° N 23:05:24 10° NNW visible
25 Nov 11.2 00:47:43 30° NNW 00:47:43 30° NNW 00:50:39 10° NNW visible
25 Nov 11.5 02:34:12 19° NNW 02:34:12 19° NNW 02:36:02 10° NNW visible
25 Nov 11.8 04:20:42 11° NNW 04:20:42 11° NNW 04:21:01 10° NNW visible
25 Nov 9.6 15:01:19 10° NNE 15:07:53 65° ESE 15:13:39 10° S visible
25 Nov 10.1 16:46:33 10° NNE 16:53:02 56° NW 16:58:47 10° SW visible
25 Nov 10.9 18:32:38 15° NNE 18:37:13 33° NNW 18:42:32 10° W visible
25 Nov 11.2 20:19:07 25° NNE 20:20:54 28° N 20:26:05 10° NW visible
25 Nov 11.0 22:05:37 34° N 22:05:37 34° N 22:10:24 10° NW visible
25 Nov 11.1 23:52:06 33° NNW 23:52:06 33° NNW 23:55:27 10° NNW visible
26 Nov 11.4 01:38:35 23° NNW 01:38:35 23° NNW 01:40:48 10° NNW visible
26 Nov 11.7 03:25:05 14° NNW 03:25:05 14° NNW 03:26:06 10° NNW visible
26 Nov 9.6 15:51:30 10° NNE 15:58:06 84° WNW 16:03:53 10° SSW visible
26 Nov 10.6 17:37:00 12° NNE 17:42:44 41° NW 17:48:13 10° WSW visible
26 Nov 11.1 19:23:29 20° NNE 19:26:37 29° N 19:31:43 10° WNW visible
26 Nov 11.1 21:09:59 29° NNE 21:10:16 30° NNE 21:15:35 10° NW visible
26 Nov 11.1 22:56:28 34° N 22:56:28 34° N 23:00:19 10° NNW visible
27 Nov 11.3 00:42:57 27° NNW 00:42:57 27° NNW 00:45:34 10° NNW visible
27 Nov 11.6 02:29:27 18° NNW 02:29:27 18° NNW 02:30:56 10° NNW visible
27 Nov 11.8 04:15:56 10° NNW 04:15:56 10° NNW 04:15:56 10° NNW visible
27 Nov 9.6 14:56:24 10° NNE 15:02:49 62° ESE 15:08:28 10° S visible
27 Nov 10.0 16:41:38 10° NNE 16:48:02 57° NW 16:53:40 10° SW visible
27 Nov 10.9 18:27:51 16° NNE 18:32:15 33° NNW 18:37:28 10° W visible
27 Nov 11.1 20:14:21 25° NNE 20:15:57 27° N 20:21:01 10° NW visible
27 Nov 11.1 22:00:50 32° N 22:00:50 32° N 22:05:19 10° NW visible
27 Nov 11.2 23:47:19 30° NNW 23:47:19 30° NNW 23:50:21 10° NNW visible
28 Nov 11.5 01:33:49 21° NNW 01:33:49 21° NNW 01:35:42 10° NNW visible
28 Nov 11.8 03:20:18 13° NNW 03:20:18 13° NNW 03:21:00 10° NNW visible
28 Nov 9.5 15:46:35 10° NNE 15:53:03 86° WNW 15:58:45 10° SSW visible
28 Nov 10.5 17:32:13 12° NNE 17:37:45 41° NW 17:43:08 10° WSW visible
28 Nov 11.1 19:18:42 20° NNE 19:21:39 28° NNW 19:26:39 10° WNW visible
28 Nov 11.1 21:05:11 29° NNE 21:05:19 29° NNE 21:10:30 10° NW visible
28 Nov 11.2 22:51:41 31° N 22:51:41 31° N 22:55:12 10° NNW visible
29 Nov 11.4 00:38:10 25° NNW 00:38:10 25° NNW 00:40:27 10° NNW visible
29 Nov 11.7 02:24:39 16° NNW 02:24:39 16° NNW 02:25:50 10° NNW visible
29 Nov 9.6 14:51:29 10° NNE 14:57:45 60° ESE 15:03:17 10° S visible
29 Nov 9.9 16:36:43 10° NNE 16:43:00 59° NW 16:48:34 10° SW visible
29 Nov 10.8 18:23:03 16° NNE 18:27:16 33° NNW 18:32:23 10° W visible
29 Nov 11.1 20:09:33 25° NNE 20:11:00 27° N 20:15:55 10° NW visible
29 Nov 11.1 21:56:01 31° N 21:56:01 31° N 22:00:12 10° NW visible
29 Nov 11.3 23:42:31 27° NNW 23:42:31 27° NNW 23:45:14 10° NNW visible
30 Nov 11.6 01:29:00 19° NNW 01:29:00 19° NNW 01:30:36 10° NNW visible
30 Nov 11.8 03:15:30 12° NNW 03:15:30 12° NNW 03:15:54 10° NNW visible
30 Nov 9.5 15:41:39 10° NNE 15:48:00 89° WNW 15:53:36 10° SSW visible
30 Nov 10.4 17:27:24 13° NNE 17:32:44 42° NW 17:38:03 10° WSW visible
30 Nov 11.1 19:13:53 20° NNE 19:16:40 28° NNW 19:21:34 10° WNW visible
30 Nov 11.1 21:00:23 28° NNE 21:00:23 28° NNE 21:05:24 10° NW visible
30 Nov 11.2 22:46:52 29° N 22:46:52 29° N 22:50:06 10° NNW visible
01 Dec 11.5 00:33:21 22° NNW 00:33:21 22° NNW 00:35:21 10° NNW visible
01 Dec 11.7 02:19:50 14° NNW 02:19:50 14° NNW 02:20:44 10° NNW visible
01 Dec 9.6 14:46:32 10° NNE 14:52:40 57° ESE 14:58:06 10° S visible
01 Dec 9.9 16:31:48 10° NNE 16:37:58 60° NW 16:43:28 10° SW visible
01 Dec 10.8 18:18:14 17° NNE 18:22:17 32° NNW 18:27:18 10° W visible
01 Dec 11.1 20:04:43 24° NNE 20:06:02 26° N 20:10:50 10° NW visible
01 Dec 11.1 21:51:12 29° N 21:51:12 29° N 21:55:06 10° NW visible
01 Dec 11.4 23:37:41 25° NNW 23:37:41 25° NNW 23:40:07 10° NNW visible
